Wetbulb
58.94 58.82 58.78 58.62 57.99 57.88 57.82 57.42 57.09 57.31 57.30 57.45 57.56 57.54 57.51 57.59 56.08 53.50 48.40 52.13 54.81 59.40 58.46 53.11 51.73 50.64 48.78 44.62 45.46 43.98 36.52 33.76 36.97 45.60 47.77 52.69 49.88 54.34 55.37 53.94 54.47 56.56 57.72 59.88 62.84
59.33 58.85 58.38 58.46 57.59 57.42 57.34 57.01 56.69 56.99 57.35 57.47 57.53 57.51 57.47 56.80 52.69 50.37 55.72 59.95 59.75 61.75 52.84 50.71 47.88 48.79 44.88 43.42 44.06 40.73 34.84 37.15 42.73 49.25 48.75 50.67 49.79 52.59 51.81 51.32 54.89 57.11 61.06 61.80 62.27
59.50 58.94 58.22 58.30 57.51 57.26 56.96 56.39 56.36 56.95 57.15 57.13 57.15 57.39 56.85 55.66 50.22 53.92 61.06 61.71 61.66 61.44 52.52 51.02 50.43 48.57 43.66 43.62 42.79 41.17 38.57 45.28 49.59 50.43 50.71 50.31 50.35 52.77 51.01 48.27 53.86 55.40 57.70 59.26 59.99
58.44 58.20 57.80 57.84 57.49 57.09 56.25 55.68 56.36 56.69 56.89 56.87 56.98 57.22 56.49 53.43 43.05 51.40 62.14 62.51 62.72 56.26 52.03 49.90 48.39 44.78 42.81 41.92 42.72 40.07 43.97 48.46 50.19 51.03 50.07 48.67 51.10 50.83 50.66 50.37 58.35 59.45 59.33 57.88 58.44
57.41 57.18 57.29 57.51 57.29 56.72 55.88 55.49 55.98 56.34 56.32 56.31 56.70 57.12 52.34 47.61 49.65 57.14 62.33 62.00 56.52 53.69 50.83 49.49 48.40 46.80 42.80 43.14 44.70 42.21 44.21 50.62 51.84 51.82 50.97 52.06 48.78 50.31 50.63 54.97 58.83 57.87 58.92 57.68 57.35
57.26 56.90 56.68 56.64 56.58 56.31 55.82 55.33 55.47 55.51 55.72 56.19 56.46 56.53 51.28 43.99 55.24 60.19 58.07 56.81 54.13 51.48 50.34 50.41 49.44 48.97 46.13 45.55 44.03 46.85 50.36 50.40 50.31 50.20 51.44 49.99 49.79 48.25 51.77 55.12 58.54 58.64 57.33 57.57 57.69
57.31 56.85 56.49 56.29 56.05 55.80 55.52 55.03 55.07 55.07 55.45 55.97 56.22 54.45 49.85 45.37 52.84 52.38 53.76 55.26 55.05 51.82 49.72 50.90 51.24 49.06 47.97 46.78 49.39 46.92 43.85 47.04 47.10 46.75 47.46 49.39 45.05 46.31 52.41 55.14 57.22 58.26 57.00 58.21 57.55
57.68 56.95 55.98 55.60 55.23 54.74 54.50 54.32 54.48 54.93 55.33 55.82 56.01 51.62 45.41 56.32 54.86 55.21 54.31 54.11 55.36 53.38 52.27 53.28 53.56 50.98 48.58 48.81 47.63 42.54 41.67 37.79 46.83 49.24 49.99 47.07 41.94 48.16 51.81 54.33 55.19 56.94 56.45 58.18 56.83
57.43 56.89 56.08 55.09 54.48 54.01 53.95 54.00 54.48 55.13 55.56 55.36 50.63 49.08 46.90 58.22 54.83 57.01 55.55 53.14 54.12 54.45 54.21 55.50 52.14 47.99 48.01 42.81 40.59 42.43 37.79 39.29 44.27 50.11 48.62 46.80 42.50 48.12 51.25 52.14 53.55 55.50 54.73 54.83 56.63
57.75 56.99 56.22 55.07 54.32 53.50 53.49 54.11 54.50 53.99 53.77 54.75 53.39 44.25 49.97 50.11 54.26 54.78 54.08 54.27 51.90 53.17 51.66 50.04 46.39 43.50 43.27 41.08 35.73 38.67 39.36 41.27 40.15 46.48 47.13 45.13 43.68 45.58 49.47 51.58 51.06 53.51 53.90 51.07 53.41
57.56 56.96 56.24 55.29 54.46 53.97 51.72 50.44 48.45 48.31 48.99 47.53 46.45 46.53 49.17 53.51 55.15 52.01 53.38 52.03 50.85 50.00 44.19 47.33 43.07 39.93 42.27 44.72 46.09 44.23 42.26 38.86 42.42 45.58 44.98 45.07 44.23 45.26 48.17 49.51 47.27 47.99 51.80 51.11 52.38
57.16 56.74 55.96 55.07 54.22 54.09 50.26 46.28 49.39 49.17 43.88 51.40 51.99 51.36 53.11 54.27 49.19 50.76 53.51 48.06 46.60 43.40 46.21 43.60 41.15 46.68 47.68 47.76 45.63 44.21 41.38 40.16 43.26 44.86 45.94 41.59 42.57 44.76 47.78 49.97 49.38 48.84 48.81 49.37 49.97
56.26 56.46 55.72 54.38 53.58 50.59 48.60 49.29 52.92 52.19 44.34 49.28 52.49 51.99 52.84 54.52 48.94 48.40 51.41 48.22 44.80 44.01 43.93 40.18 44.23 49.17 47.09 45.55 44.04 42.93 40.81 40.95 40.73 42.88 42.10 40.22 38.49 41.75 46.09 49.39 50.09 50.39 49.96 50.49 51.06
55.43 55.68 54.54 53.18 48.85 49.52 49.36 54.50 54.63 51.74 39.88 44.44 48.97 52.02 53.79 51.44 45.68 51.42 52.06 48.90 45.93 43.40 43.80 42.81 46.56 45.74 44.07 44.42 45.12 39.98 45.70 44.67 42.82 38.16 33.63 40.17 31.16 38.30 42.88 46.25 48.80 49.25 47.81 48.30 51.64
54.88 55.23 53.74 52.71 49.53 48.66 54.17 53.16 53.08 51.58 23.20 46.12 48.97 55.31 51.88 46.50 48.26 48.79 51.66 48.64 43.28 45.19 44.02 41.21 43.75 44.16 42.69 43.99 47.01 42.36 45.58 44.44 43.72 39.29 37.38 39.28 34.89 37.77 42.80 42.77 44.87 48.46 48.65 49.16 52.62
54.64 54.90 53.28 52.04 50.39 50.57 53.74 52.37 53.45 41.51 28.50 45.22 49.03 46.16 44.28 45.59 47.27 48.27 48.22 49.07 48.63 45.98 45.20 42.82 47.10 46.67 45.26 48.44 47.14 47.05 43.95 43.47 41.59 39.11 32.26 39.79 35.88 35.36 39.55 43.45 47.12 47.95 50.21 50.15 52.43
53.87 54.40 52.89 53.67 47.42 53.08 53.82 52.21 39.77 34.57 45.31 43.31 42.61 44.39 44.17 43.30 44.81 45.42 44.03 41.85 39.81 36.82 37.22 42.46 43.33 46.28 48.33 43.87 45.63 44.03 38.59 30.20 28.28 28.53 28.97 40.56 36.49 38.67 43.62 46.57 46.76 47.44 48.53 49.66 52.15
52.84 53.32 53.15 52.80 51.15 52.73 52.90 46.07 34.14 39.39 41.46 47.74 43.98 43.68 40.86 43.54 43.29 43.92 41.62 39.01 41.60 41.48 37.54 36.27 34.80 44.05 47.53 44.17 41.57 42.71 39.76 30.36 26.60 26.40 29.36 40.28 34.47 39.14 46.28 48.35 48.80 48.97 48.23 51.52 52.11
52.79 53.07 51.94 52.37 52.34 51.97 49.07 38.52 34.90 41.20 45.04 43.78 43.19 40.11 39.65 43.01 43.34 42.41 40.36 39.44 41.96 42.12 36.94 37.05 37.84 46.27 47.61 47.76 45.72 42.13 37.91 42.40 35.25 32.22 28.23 34.23 37.50 43.94 46.60 47.70 48.52 47.57 49.06 50.58 51.90
49.79 50.82 50.73 52.99 53.61 51.00 45.71 37.63 41.60 47.12 47.68 46.86 39.72 41.63 37.47 40.16 40.09 40.46 39.84 43.18 42.03 44.43 43.65 42.61 36.47 43.94 46.16 47.43 46.08 43.27 45.16 36.57 35.05 26.84 25.24 30.76 33.20 36.37 41.72 44.13 46.63 46.05 47.72 50.37 51.11
49.35 46.38 52.07 54.45 52.75 46.41 38.38 38.96 42.75 47.62 48.37 46.11 43.59 41.78 41.07 40.09 41.20 39.26 40.59 43.74 44.67 44.77 45.35 43.79 39.90 39.30 44.35 42.06 40.38 40.40 38.82 39.23 38.35 33.79 27.75 25.13 30.86 39.97 43.35 45.18 46.52 47.24 49.79 50.56 50.69
47.76 41.09 51.65 54.24 41.39 41.07 39.35 42.12 44.21 45.36 48.20 47.45 47.37 45.50 42.83 41.89 40.68 40.23 40.26 43.10 46.74 47.55 42.92 44.65 39.95 34.47 39.84 45.09 47.09 43.26 40.70 40.68 30.08 31.19 31.35 27.66 30.92 42.62 44.23 45.79 45.81 46.78 50.41 51.34 51.97
44.42 45.37 51.09 51.09 34.93 35.55 40.86 42.53 44.46 43.66 45.19 46.12 45.63 46.96 46.31 42.62 38.82 41.69 42.36 47.42 47.21 47.37 43.97 45.05 38.43 31.77 35.78 40.86 43.64 40.80 41.72 41.52 39.89 34.99 31.50 25.74 30.89 43.21 42.59 43.95 45.67 44.89 47.51 50.95 51.66
46.01 39.38 45.93 47.15 44.04 38.37 37.78 39.72 40.24 45.30 44.43 45.80 46.17 47.32 44.90 42.57 43.92 41.27 43.23 47.70 48.33 47.61 46.22 46.22 40.75 36.03 31.97 35.88 39.18 37.42 40.68 41.13 38.32 29.05 31.24 31.82 36.09 41.04 42.70 42.41 43.59 44.13 45.11 49.52 51.54
45.84 40.30 43.20 38.54 40.27 40.39 39.73 40.00 39.06 39.48 44.28 47.46 45.50 45.07 43.84 40.13 40.65 41.11 44.92 45.30 47.34 45.76 46.04 43.57 37.63 39.07 39.77 40.66 41.25 39.69 39.37 39.57 38.32 37.89 32.86 36.30 36.80 41.00 41.27 41.81 42.28 43.78 44.27 47.39 49.60
42.79 40.74 44.97 42.20 42.94 40.43 38.70 37.99 38.92 40.88 43.01 41.43 42.96 45.84 45.66 41.89 41.99 40.33 44.73 43.53 42.47 44.37 42.97 43.94 36.72 36.41 35.30 39.06 39.15 36.69 38.79 38.89 39.35 39.42 38.66 38.11 37.70 41.18 41.67 41.96 42.13 42.45 44.14 44.33 46.00
46.87 46.35 45.74 41.94 41.52 40.03 39.42 39.09 40.35 42.93 44.60 45.88 46.28 45.56 44.19 45.64 46.56 45.80 47.89 48.09 46.79 43.37 41.36 41.10 38.25 32.65 30.83 34.71 35.02 29.53 36.20 38.47 39.27 39.48 39.27 34.02 37.97 40.91 40.53 41.41 41.41 42.25 43.78 44.32 45.69
MSLP
1021.51 1021.41 1021.32 1021.17 1020.96 1020.88 1020.64 1020.28 1019.90 1019.47 1019.09 1018.71 1018.31 1017.78 1017.17 1016.79 1015.97 1015.31 1014.53 1011.75 1011.47 1011.21 1011.55 1011.40 1011.43 1011.78 1012.12 1012.19 1012.05 1012.33 1013.68 1014.18 1013.41 1013.28 1013.18 1013.19 1013.52 1013.19 1013.32 1013.19 1013.24 1013.63 1014.04 1014.78 1016.27
1021.24 1021.20 1021.06 1020.98 1020.67 1020.57 1020.36 1020.09 1019.74 1019.30 1018.97 1018.53 1018.16 1017.66 1017.14 1016.74 1016.00 1014.26 1011.05 1010.81 1010.96 1011.10 1011.56 1011.43 1011.40 1011.79 1012.11 1011.88 1011.77 1012.16 1013.19 1012.96 1012.36 1012.60 1013.08 1013.32 1013.37 1013.39 1013.32 1013.31 1014.29 1014.55 1015.01 1015.83 1016.66
1020.92 1020.94 1020.86 1020.76 1020.44 1020.26 1020.10 1019.88 1019.52 1019.03 1018.75 1018.35 1017.91 1017.51 1017.02 1016.69 1015.63 1011.82 1010.10 1010.44 1010.70 1011.10 1011.19 1011.12 1011.34 1011.80 1011.86 1011.35 1011.33 1011.52 1011.75 1012.01 1012.55 1012.52 1012.76 1012.98 1013.28 1012.76 1012.53 1012.90 1013.21 1014.52 1015.71 1016.28 1016.60
1020.60 1020.63 1020.60 1020.46 1020.16 1019.98 1019.73 1019.58 1019.15 1018.85 1018.55 1018.20 1017.87 1017.37 1016.74 1016.49 1014.19 1010.54 1010.10 1010.05 1010.43 1010.84 1011.08 1011.03 1011.32 1011.70 1011.59 1011.19 1010.81 1011.00 1010.34 1011.08 1012.37 1012.37 1012.69 1013.27 1012.87 1012.59 1012.99 1013.04 1013.03 1013.72 1014.33 1016.10 1016.67
1020.30 1020.31 1020.27 1020.12 1019.92 1019.63 1019.36 1019.22 1018.88 1018.59 1018.37 1018.12 1017.79 1017.35 1016.65 1015.79 1013.00 1010.24 1010.35 1010.51 1010.66 1010.93 1010.88 1011.10 1011.24 1011.46 1011.35 1010.73 1010.38 1010.26 1009.70 1010.54 1011.69 1011.67 1012.19 1012.80 1012.73 1012.70 1012.48 1012.64 1013.60 1014.43 1014.69 1015.94 1016.05
1019.94 1019.96 1019.92 1019.78 1019.63 1019.31 1019.07 1018.83 1018.57 1018.36 1018.17 1017.99 1017.72 1017.41 1016.89 1014.92 1010.74 1010.22 1010.50 1011.06 1010.62 1010.70 1010.46 1010.83 1010.73 1010.80 1010.82 1010.33 1010.27 1010.27 1009.96 1011.31 1011.96 1012.07 1012.18 1012.74 1012.86 1012.62 1012.40 1012.37 1013.16 1014.31 1015.28 1016.17 1016.15
1019.52 1019.57 1019.52 1019.45 1019.27 1018.99 1018.81 1018.47 1018.28 1018.08 1017.93 1017.76 1017.67 1017.39 1016.60 1012.98 1010.53 1010.57 1010.58 1010.33 1010.28 1010.17 1010.07 1009.97 1010.09 1010.61 1010.21 1010.17 1009.98 1010.17 1011.29 1011.96 1012.63 1012.60 1012.24 1012.28 1012.73 1012.30 1012.66 1012.61 1013.20 1014.55 1015.32 1015.97 1016.11
1019.09 1019.19 1019.17 1019.16 1019.02 1018.72 1018.48 1018.15 1017.90 1017.73 1017.59 1017.48 1017.52 1017.34 1015.08 1011.00 1010.73 1010.61 1010.05 1009.81 1009.67 1009.83 1009.73 1009.21 1009.52 1009.87 1009.95 1010.05 1010.09 1010.38 1011.07 1011.95 1012.44 1011.85 1011.40 1012.11 1011.99 1011.88 1012.17 1012.69 1013.66 1014.43 1015.14 1015.67 1016.14
1018.74 1018.86 1018.78 1018.80 1018.74 1018.51 1018.16 1017.67 1017.27 1017.18 1017.27 1017.31 1017.46 1016.99 1013.83 1010.65 1010.22 1009.17 1009.49 1009.64 1009.57 1009.52 1009.54 1009.44 1009.35 1010.09 1010.23 1010.70 1010.93 1010.98 1011.61 1011.78 1011.76 1010.64 1011.07 1011.02 1011.53 1011.24 1011.83 1012.56 1013.27 1014.16 1014.84 1015.34 1015.93
1018.31 1018.38 1018.51 1018.53 1018.44 1018.32 1017.94 1017.04 1016.54 1016.77 1016.80 1016.88 1016.64 1016.49 1012.94 1010.63 1009.61 1008.68 1008.54 1009.15 1009.61 1009.49 1009.56 1009.64 1010.31 1010.78 1011.14 1011.43 1011.55 1011.72 1011.50 1011.55 1011.33 1010.92 1010.83 1011.17 1011.28 1011.36 1011.55 1012.27 1012.97 1013.61 1014.27 1014.78 1015.12
1017.89 1017.96 1018.17 1018.26 1018.25 1018.14 1017.91 1017.03 1016.86 1016.79 1016.25 1014.97 1014.35 1013.46 1011.80 1010.31 1008.94 1008.48 1008.28 1008.83 1009.42 1009.96 1010.42 1010.48 1011.27 1011.46 1011.30 1011.69 1011.71 1011.67 1011.48 1011.45 1010.97 1010.36 1010.94 1010.83 1011.10 1011.14 1011.40 1012.06 1012.77 1013.00 1013.46 1014.18 1014.67
1017.54 1017.67 1017.84 1017.94 1018.06 1018.11 1018.16 1017.62 1016.11 1015.89 1014.93 1013.20 1012.51 1012.12 1011.08 1011.00 1010.59 1008.50 1008.16 1008.94 1009.64 1010.36 1010.62 1011.23 1011.21 1010.88 1010.72 1011.22 1011.86 1011.86 1011.42 1010.70 1010.08 1009.41 1010.44 1010.78 1010.99 1010.93 1011.18 1011.39 1011.55 1012.06 1012.66 1013.27 1014.03
1017.21 1017.33 1017.61 1017.69 1017.90 1018.08 1017.67 1016.56 1015.29 1015.39 1015.14 1011.74 1010.75 1010.51 1010.05 1010.25 1009.86 1008.49 1008.31 1008.76 1009.56 1010.44 1010.72 1011.09 1010.78 1010.65 1010.97 1011.27 1011.59 1011.25 1011.42 1011.03 1010.37 1010.18 1010.52 1010.61 1011.17 1011.08 1011.15 1011.25 1011.64 1011.88 1011.80 1012.27 1012.62
1016.89 1017.07 1017.24 1017.66 1018.21 1017.48 1016.79 1015.31 1014.86 1015.40 1015.03 1011.24 1009.61 1008.39 1008.78 1009.15 1008.94 1007.67 1007.90 1008.55 1009.38 1010.18 1010.94 1010.88 1010.69 1010.78 1010.88 1011.17 1011.31 1010.93 1010.30 1010.80 1010.77 1010.83 1010.92 1010.82 1011.48 1011.22 1010.98 1011.07 1011.41 1011.53 1011.94 1012.09 1012.37
1016.45 1016.77 1016.95 1017.28 1017.50 1017.02 1015.54 1015.24 1015.01 1015.12 1013.81 1009.46 1008.18 1006.90 1007.66 1008.52 1007.84 1007.33 1007.25 1008.11 1009.23 1009.91 1010.72 1010.59 1010.60 1010.63 1010.47 1010.45 1010.54 1010.58 1010.82 1011.07 1011.26 1011.55 1011.59 1011.43 1011.72 1010.87 1010.52 1010.66 1010.78 1010.58 1011.11 1011.58 1011.87
1016.05 1016.36 1016.71 1017.42 1017.40 1015.94 1015.26 1014.95 1015.11 1014.94 1012.33 1008.77 1007.32 1007.40 1007.98 1008.20 1007.80 1007.37 1007.43 1007.85 1008.39 1009.71 1010.08 1010.25 1010.16 1010.03 1009.83 1009.86 1010.34 1010.36 1011.02 1011.73 1012.17 1012.54 1012.87 1011.87 1011.92 1010.85 1010.24 1009.30 1009.01 1009.53 1010.31 1011.27 1012.07
1015.66 1015.97 1016.29 1016.05 1016.13 1015.65 1015.18 1015.20 1015.35 1013.71 1010.38 1008.54 1007.67 1007.54 1007.87 1008.16 1008.14 1008.03 1007.89 1008.32 1009.01 1010.03 1010.50 1010.43 1010.20 1009.62 1009.58 1009.71 1009.81 1010.82 1011.61 1013.12 1014.10 1014.30 1013.76 1012.33 1011.98 1010.15 1009.10 1008.68 1008.70 1009.23 1010.09 1010.96 1011.82
1015.34 1015.60 1015.62 1015.38 1015.47 1015.57 1015.38 1015.60 1014.35 1011.66 1009.83 1008.03 1007.42 1007.62 1007.96 1008.11 1008.13 1008.09 1008.20 1008.66 1008.95 1009.74 1010.87 1010.90 1010.70 1010.08 1009.72 1010.17 1010.54 1011.27 1011.73 1013.22 1014.34 1014.94 1014.16 1012.74 1011.59 1009.84 1008.54 1007.87 1008.02 1008.71 1009.79 1010.27 1011.71
1015.31 1015.35 1015.20 1014.77 1015.41 1015.94 1015.99 1014.74 1012.44 1010.78 1008.87 1008.09 1007.49 1007.90 1007.90 1008.02 1008.20 1008.30 1008.41 1008.66 1008.65 1009.33 1010.63 1010.94 1011.07 1010.62 1010.28 1010.27 1010.26 1011.07 1011.80 1012.42 1013.68 1015.08 1014.77 1013.18 1011.30 1009.86 1008.99 1008.47 1008.52 1009.32 1010.00 1010.69 1011.59
1014.93 1014.62 1014.12 1014.09 1014.90 1015.83 1015.62 1013.02 1011.65 1009.71 1008.69 1007.84 1007.56 1007.30 1007.48 1007.70 1008.27 1008.27 1008.27 1007.82 1008.18 1008.48 1009.21 1010.45 1011.23 1010.99 1010.46 1009.97 1009.85 1010.15 1010.91 1012.41 1013.42 1015.10 1015.05 1013.61 1012.14 1010.61 1009.83 1009.47 1009.45 1009.79 1010.16 1010.87 1011.53
1014.62 1013.75 1012.52 1013.68 1014.45 1015.27 1013.48 1012.51 1011.51 1008.86 1009.36 1008.54 1007.69 1007.26 1007.06 1007.26 1007.51 1007.90 1007.81 1007.44 1007.24 1007.92 1008.85 1010.15 1010.94 1011.47 1011.09 1010.18 1009.63 1010.36 1010.70 1011.66 1012.84 1014.24 1014.85 1014.25 1012.42 1010.25 1009.80 1009.55 1009.55 1009.78 1009.98 1010.48 1011.32
1013.16 1012.30 1011.84 1012.60 1014.07 1013.58 1012.39 1012.08 1011.35 1009.31 1009.62 1009.16 1007.93 1007.23 1006.76 1006.64 1006.90 1007.21 1007.08 1006.89 1006.82 1007.34 1008.97 1009.50 1010.83 1011.55 1010.48 1009.80 1009.54 1010.05 1010.67 1011.27 1012.90 1014.12 1014.51 1013.91 1012.00 1009.90 1009.49 1009.33 1009.36 1009.72 1010.10 1010.30 1010.57
1011.57 1011.46 1011.89 1011.36 1011.83 1011.61 1011.68 1011.58 1011.21 1009.47 1009.19 1008.71 1007.90 1006.98 1006.36 1006.50 1006.59 1006.64 1006.46 1006.49 1006.36 1007.07 1007.94 1008.99 1010.36 1011.25 1010.95 1009.95 1009.54 1009.98 1009.85 1010.45 1011.55 1012.86 1013.64 1013.75 1011.82 1009.83 1009.45 1009.50 1009.33 1009.47 1009.69 1010.07 1010.36
1009.99 1010.51 1011.19 1010.70 1009.41 1009.94 1010.35 1010.52 1010.56 1009.22 1009.28 1008.92 1008.30 1007.53 1007.03 1006.47 1006.26 1006.26 1006.35 1006.58 1006.76 1006.97 1007.60 1008.12 1009.62 1010.55 1010.75 1010.20 1009.91 1009.88 1009.52 1009.77 1011.03 1012.60 1012.77 1012.38 1011.21 1010.13 1009.46 1009.37 1009.21 1009.21 1009.30 1009.59 1010.08
1008.33 1007.68 1007.38 1008.22 1008.43 1008.94 1009.72 1009.57 1009.61 1008.85 1008.43 1008.03 1007.82 1007.50 1007.27 1006.97 1006.43 1006.55 1006.70 1007.10 1007.28 1007.30 1008.07 1008.71 1009.87 1010.40 1010.50 1010.25 1009.96 1009.67 1009.60 1009.82 1010.39 1011.04 1011.81 1011.29 1011.06 1009.75 1009.36 1009.01 1008.94 1009.20 1009.46 1009.81 1010.33
1006.98 1006.24 1006.42 1006.51 1008.00 1008.58 1008.27 1007.83 1008.02 1008.24 1007.38 1006.86 1007.60 1006.72 1006.73 1006.83 1006.34 1006.33 1006.32 1006.74 1007.40 1007.95 1008.11 1009.05 1010.32 1011.08 1011.34 1011.09 1010.54 1010.21 1009.76 1009.70 1009.92 1010.19 1010.46 1010.53 1010.59 1010.01 1009.76 1009.87 1009.87 1010.02 1010.13 1010.61 1010.72
1006.43 1005.59 1005.41 1006.15 1006.67 1007.57 1006.27 1006.88 1006.96 1007.50 1006.61 1006.08 1006.43 1006.50 1005.97 1005.83 1005.84 1005.74 1005.74 1006.11 1006.58 1007.92 1008.95 1009.89 1011.06 1012.49 1012.96 1012.44 1011.59 1011.01 1009.82 1009.54 1009.50 1009.66 1009.90 1010.47 1010.75 1010.65 1010.85 1011.08 1011.43 1011.37 1011.24 1011.58 1011.72
Wind_Speed
7 7 7 8 8 10 11 12 13 14 16 17 17 16 17 16 18 3 7 13 9 11 3 4 4 1 3 3 5 5 4 3 6 8 3 3 4 2 6 4 4 5 3 15 17
7 8 9 8 8 9 11 12 12 13 14 15 16 15 14 14 5 8 13 10 15 3 3 3 4 5 1 4 2 5 4 7 4 3 5 4 4 4 1 1 4 12 16 20 18
8 8 9 9 9 9 10 11 12 14 14 15 15 15 14 10 4 7 1 11 12 9 4 2 1 1 3 4 4 4 7 6 1 4 7 8 3 4 5 4 6 13 14 16 19
8 8 9 10 9 10 10 11 11 13 14 14 15 15 18 2 2 3 3 4 12 7 3 2 1 2 3 4 2 4 10 9 11 8 6 5 3 2 3 2 16 18 22 17 18
10 9 10 10 10 10 11 11 11 12 13 14 13 13 6 4 10 7 5 5 6 6 4 3 1 1 4 5 6 3 6 6 12 12 6 4 3 3 2 8 10 12 20 20 20
10 10 10 10 11 11 11 11 11 11 11 11 11 11 2 5 5 4 8 0 4 5 5 6 5 4 7 4 3 5 9 12 5 6 5 6 3 3 4 9 12 15 18 18 21
10 10 10 10 11 11 12 12 11 11 10 9 8 4 2 17 3 5 6 5 5 5 4 6 4 2 3 6 6 2 12 8 3 1 5 5 2 3 3 10 13 16 19 19 19
10 11 10 10 11 12 13 13 13 11 10 6 4 1 9 6 5 8 4 7 7 7 5 7 3 3 1 1 6 3 4 4 6 9 5 11 5 5 6 10 9 11 15 16 21
10 11 10 9 10 11 13 15 16 12 7 4 1 1 12 12 5 8 7 6 5 7 7 8 3 1 6 3 5 5 3 4 3 4 3 4 5 6 8 8 8 12 16 16 18
11 11 10 9 9 10 14 20 8 3 2 4 4 4 7 3 6 4 5 6 4 0 2 4 5 3 4 4 2 2 3 2 5 6 2 2 6 5 7 11 12 13 15 16 18
11 11 10 8 8 8 7 5 3 1 2 9 6 5 7 8 7 1 2 3 3 4 2 1 4 2 3 3 7 8 12 6 6 11 7 12 6 7 8 10 13 14 17 17 18
10 11 10 7 6 6 1 2 5 2 9 14 16 14 14 3 7 9 5 3 6 5 1 4 4 7 4 3 4 8 9 7 9 4 15 5 11 5 9 12 17 20 18 17 13
11 10 9 5 3 1 4 7 4 7 4 8 8 8 7 10 8 8 6 4 4 6 5 7 7 2 3 4 6 5 5 6 8 4 6 5 3 5 3 3 5 8 17 17 19
11 10 8 5 0 2 5 3 7 6 3 9 6 8 7 5 6 8 5 6 2 7 5 5 0 4 3 1 2 13 8 12 5 1 1 2 3 2 8 12 10 12 9 11 15
11 11 10 8 1 2 2 7 3 4 3 5 6 6 9 9 3 4 6 4 6 6 5 6 6 5 3 7 8 12 3 2 7 3 3 3 4 7 4 8 10 15 14 15 17
11 11 11 2 1 6 10 7 2 3 9 4 8 8 7 5 3 4 5 4 4 6 3 3 2 5 5 2 4 4 4 6 6 4 3 5 6 6 6 11 14 9 17 13 11
11 12 10 6 4 3 5 3 3 6 5 5 6 8 7 7 4 5 3 5 6 4 2 3 3 1 2 6 6 4 5 3 4 4 6 7 4 10 4 7 8 9 9 10 11
11 11 7 6 3 6 3 2 9 8 7 4 7 9 9 6 6 6 5 5 1 5 2 5 4 2 2 3 2 4 3 6 4 3 5 4 4 7 7 7 5 6 9 10 11
8 4 3 6 4 2 1 10 10 7 5 4 5 7 5 6 5 5 8 8 8 8 9 4 3 6 4 3 7 3 3 6 6 1 3 4 4 6 6 7 7 7 8 7 9
5 5 5 6 11 3 5 12 5 8 7 4 5 6 9 9 8 7 7 7 7 11 7 7 1 3 6 2 4 7 6 2 4 2 3 4 4 6 2 2 1 4 8 8 8
6 5 7 12 6 3 14 10 9 19 5 4 2 1 8 9 10 7 7 7 8 6 9 6 5 5 2 5 8 1 2 1 5 5 5 1 6 6 8 8 10 9 8 11 12
6 8 10 13 8 4 16 14 9 22 9 8 4 7 4 8 8 9 10 9 6 9 9 7 6 5 10 2 4 4 5 5 7 5 1 4 7 4 9 10 8 8 7 10 14
5 5 5 12 13 12 7 20 12 13 6 4 5 5 3 4 3 7 7 1 2 7 10 9 1 3 9 8 4 3 5 5 4 4 6 7 8 3 2 4 8 9 9 9 11
6 9 6 10 8 19 18 14 21 16 18 10 10 5 5 2 4 1 3 2 2 3 5 8 5 8 9 8 4 3 4 5 6 4 4 7 6 6 9 8 8 7 6 9 11
5 8 9 14 17 15 17 13 17 13 13 9 9 16 10 6 3 6 3 2 2 6 3 5 6 4 5 3 3 1 0 0 4 4 6 8 7 9 4 8 9 5 2 4 6
6 6 6 3 16 17 19 22 25 20 10 16 16 13 6 7 8 6 7 4 5 2 5 2 3 2 3 3 3 3 3 4 5 4 4 4 5 6 4 6 9 5 8 8 5
4 4 7 12 18 18 19 19 21 21 13 19 14 15 12 12 9 8 8 11 11 11 7 7 7 4 5 3 4 6 7 7 5 3 5 5 4 2 8 9 6 7 8 7 6
Wind_Direction
293 295 302 310 315 313 314 314 317 320 317 318 315 317 321 319 312 255 247 220 191 242 344 315 267 313 119 279 190 121 67 300 254 173 195 98 18 342 306 339 63 15 66 121 127
279 290 300 303 307 306 308 311 315 316 315 316 313 318 320 325 301 260 245 218 219 114 183 240 310 19 326 252 294 109 119 236 233 135 147 113 144 228 66 355 64 83 95 118 126
269 280 290 296 301 302 305 310 314 317 317 315 315 321 316 324 311 253 201 228 210 182 238 227 344 20 255 199 219 185 225 148 266 139 133 151 223 216 158 85 177 135 122 129 124
263 273 281 287 295 299 302 305 312 316 316 316 322 322 315 212 274 268 29 43 178 178 237 300 42 186 274 326 220 229 242 165 177 138 133 183 142 255 105 113 128 146 136 138 117
259 268 276 284 290 294 297 302 310 312 313 318 324 326 348 327 251 266 87 105 135 166 204 184 313 211 256 273 317 248 270 109 153 144 161 106 145 254 303 118 133 136 129 137 137
252 262 272 282 289 294 297 300 308 307 309 317 323 320 5 285 246 135 105 114 192 189 188 166 222 208 276 290 70 312 88 108 87 138 149 136 263 23 303 180 128 133 136 147 159
246 256 267 279 287 294 297 301 302 302 301 310 312 309 285 242 271 318 311 218 205 198 228 200 195 175 259 323 315 224 94 86 59 237 201 142 279 247 37 121 137 144 153 165 179
242 250 262 278 289 296 298 300 293 289 288 285 294 285 251 255 251 274 213 278 201 224 246 278 242 238 242 340 343 36 50 105 230 188 222 172 199 202 214 130 173 147 160 162 174
240 250 256 273 287 299 302 298 287 275 256 225 241 211 267 310 271 253 178 247 323 219 239 244 63 293 7 56 360 11 89 124 273 286 137 107 229 245 157 161 178 161 167 170 176
235 243 254 268 289 307 314 294 285 325 191 188 259 348 271 281 272 217 197 214 244 283 34 50 41 43 23 72 343 329 227 280 198 247 288 234 248 285 170 154 173 170 168 171 176
236 239 247 266 290 324 350 350 359 6 233 204 193 249 287 321 305 287 227 163 136 48 143 353 73 180 277 26 29 343 303 290 243 210 174 216 227 210 174 159 160 165 165 175 189
240 237 238 253 292 326 80 256 246 172 297 226 243 239 260 334 308 302 135 137 127 195 150 30 214 211 169 81 70 324 280 268 301 240 180 165 232 212 179 181 171 169 173 177 173
239 236 230 234 320 3 212 230 291 29 284 280 202 216 215 155 218 259 153 146 148 183 225 172 225 240 122 29 0 285 249 291 260 337 184 118 14 164 178 189 190 201 180 179 175
225 231 202 148 267 256 248 270 307 150 347 274 203 237 156 177 271 221 186 160 125 174 181 218 98 178 98 90 269 297 279 233 287 38 161 62 223 254 194 199 186 198 191 183 182
222 218 183 162 194 226 260 352 10 69 347 243 161 157 149 168 211 263 167 119 177 181 131 255 151 158 153 211 206 247 75 227 290 99 66 328 74 268 175 185 190 207 195 190 184
219 205 155 134 251 251 313 307 81 94 249 275 150 171 134 218 259 346 156 131 173 153 274 199 171 177 204 208 183 298 110 40 17 33 27 260 151 266 216 206 210 177 199 195 188
217 194 169 163 204 317 312 57 97 202 302 206 175 149 163 183 241 201 199 173 137 111 235 314 226 343 125 356 1 128 70 357 0 17 220 293 127 245 217 247 200 199 159 168 173
212 183 217 213 68 11 13 83 216 220 247 314 155 148 172 169 235 189 151 177 253 116 117 180 306 175 45 159 48 351 133 151 229 212 249 259 217 259 296 234 224 195 170 133 165
182 208 198 220 196 51 88 204 193 224 203 246 133 150 215 202 194 204 179 190 202 163 166 181 254 320 227 209 134 179 186 179 114 320 49 255 293 335 338 6 2 122 121 144 154
193 211 213 145 142 145 217 224 228 225 2 348 197 175 176 199 173 156 201 209 207 192 159 199 135 214 278 308 181 159 160 131 25 230 254 294 279 237 185 241 344 181 173 162 148
204 202 166 147 123 176 213 218 234 272 321 307 318 304 199 184 189 181 215 244 193 221 139 142 119 268 336 211 201 185 194 182 130 141 170 206 271 224 204 193 201 212 184 166 173
216 198 153 143 167 210 220 206 224 263 281 267 288 230 212 197 184 203 200 202 139 152 158 193 133 182 215 139 137 120 242 176 124 239 143 153 265 261 209 216 188 208 205 194 185
211 162 181 159 190 212 212 212 226 249 226 260 268 223 188 195 170 183 181 133 63 143 165 171 164 55 343 350 30 191 231 195 102 77 191 138 260 293 270 245 222 198 208 202 202
188 170 166 200 219 197 184 198 213 247 249 270 287 308 276 238 227 211 139 92 95 109 142 107 147 158 185 204 176 212 260 182 133 117 193 213 235 260 259 228 223 214 203 204 200
217 195 172 188 211 200 188 187 199 225 209 187 243 234 243 269 194 168 144 96 16 140 134 125 165 166 193 204 180 123 5 283 161 192 148 254 210 250 289 251 216 171 151 154 208
203 168 157 196 193 199 188 207 199 215 235 210 230 253 251 221 196 185 138 154 190 327 129 72 217 169 208 33 55 170 242 277 239 200 222 237 269 315 85 53 49 67 97 92 73
250 273 157 198 182 189 206 198 203 204 223 235 196 232 259 243 230 219 200 174 170 163 173 142 134 104 244 341 25 343 225 210 228 243 186 197 189 256 57 59 36 49 66 66 49